Ironwood, MI

4:17 AM CDT on August 30, 2016 (GMT -0500)
Gogebic-Iron County

Weather History for KIWD - December, 2011

Change the Weather History Date:

Saturday, December 24, 2011

  Actual Average Record
Temperature  
Mean Temperature 28 °F -  
Max Temperature 33 °F 21 °F 37 °F (2005)
Min Temperature 23 °F 8 °F -18 °F (2004)
Degree Days  
Heating Degree Days 37    
Moisture  
Dew Point 20 °F    
Average Humidity 73    
Maximum Humidity 86    
Minimum Humidity 60    
Precipitation  
Precipitation 0.00 in - - ()
Sea Level Pressure  
Sea Level Pressure 29.94 in    
Wind  
Wind Speed 7 mph (SSW)    
Max Wind Speed 14 mph    
Max Gust Speed 22 mph    
Visibility 10 miles    
Events      
Averages and records for this station are not official NWS values.
T = Trace of Precipitation, MM = Missing Value Source: NWS Daily Summary

Daily Weather History Graph

Daily Weather History Graph

Search for Another Location

Airport or City:

Trip Planner

Search our weather history database for the weather conditions in past years. The results will help you decide how hot, cold, wet, or windy it might be!

Date:

Astronomy

Dec. 24, 2011 Rise Set
Actual Time 7:42 AM CST 4:17 PM CST
Civil Twilight 7:07 AM CST 4:52 PM CST
Nautical Twilight 6:29 AM CST 5:30 PM CST
Astronomical Twilight 5:52 AM CST 6:07 PM CST
Moon 7:31 AM CST (12/24) 4:31 PM CST (12/24)
Length of Visible Light 9h 44m
Length of Day
8h 34m
New Moon, 0% of the Moon is Illuminated
Dec 24
New Moon
Dec 24
New
Jan 1
First Quarter
Jan 9
Full
Jan 16
Last Quarter

Hourly Weather History & Observations

Time (CST) Temp. Windchill Dew Point Humidity Pressure Visibility Wind Dir Wind Speed Gust Speed Precip Events Conditions
12:15 AM 24.8 °F 16.9 °F 21.2 °F 86% 30.05 in 10.0 mi SW 6.9 mph - N/A   Overcast
12:35 AM 24.8 °F 17.9 °F 21.2 °F 86% 30.06 in 10.0 mi SW 5.8 mph - N/A   Overcast
12:55 AM 24.8 °F 17.9 °F 21.2 °F 86% 30.06 in 10.0 mi SW 5.8 mph - N/A   Overcast
1:15 AM 24.8 °F 17.9 °F 21.2 °F 86% 30.07 in 10.0 mi SW 5.8 mph - N/A   Overcast
1:35 AM 24.8 °F 20.5 °F 21.2 °F 86% 30.07 in 10.0 mi SW 3.5 mph - N/A   Overcast
1:55 AM 24.8 °F 20.5 °F 21.2 °F 86% 30.07 in 10.0 mi SW 3.5 mph - N/A   Overcast
2:55 AM 24.8 °F 20.5 °F 19.4 °F 80% 30.07 in 10.0 mi South 3.5 mph - N/A   Overcast
3:15 AM 24.8 °F 19.1 °F 21.2 °F 86% 30.07 in 10.0 mi South 4.6 mph - N/A   Overcast
3:35 AM 24.8 °F 17.9 °F 19.4 °F 80% 30.06 in 10.0 mi South 5.8 mph - N/A   Overcast
3:55 AM 24.8 °F 19.1 °F 19.4 °F 80% 30.06 in 10.0 mi South 4.6 mph - N/A   Overcast
4:35 AM 24.8 °F 19.1 °F 19.4 °F 80% 30.06 in 10.0 mi SSW 4.6 mph - N/A   Overcast
4:55 AM 24.8 °F 16.9 °F 19.4 °F 80% 30.07 in 10.0 mi SW 6.9 mph - N/A   Overcast
5:15 AM 24.8 °F 16.9 °F 19.4 °F 80% 30.07 in 10.0 mi SSW 6.9 mph - N/A   Overcast
5:35 AM 26.6 °F 20.0 °F 19.4 °F 74% 30.07 in 10.0 mi SSW 5.8 mph - N/A   Overcast
5:55 AM 26.6 °F 21.2 °F 19.4 °F 74% 30.07 in 10.0 mi South 4.6 mph - N/A   Overcast
6:15 AM 24.8 °F 19.1 °F 19.4 °F 80% 30.06 in 10.0 mi South 4.6 mph - N/A   Mostly Cloudy
6:35 AM 24.8 °F 17.9 °F 19.4 °F 80% 30.05 in 10.0 mi South 5.8 mph - N/A   Overcast
6:55 AM 24.8 °F 17.9 °F 19.4 °F 80% 30.06 in 10.0 mi South 5.8 mph - N/A   Overcast
7:15 AM 24.8 °F 20.5 °F 19.4 °F 80% 30.05 in 10.0 mi SSW 3.5 mph - N/A   Overcast
7:35 AM 23.0 °F 15.8 °F 17.6 °F 80% 30.03 in 10.0 mi SSE 5.8 mph - N/A   Scattered Clouds
8:35 AM 23.0 °F 13.9 °F 17.6 °F 80% 30.04 in 10.0 mi SSW 8.1 mph - N/A   Clear
8:55 AM 23.0 °F 15.8 °F 17.6 °F 80% 30.04 in 10.0 mi SW 5.8 mph - N/A   Clear
9:15 AM 23.0 °F 13.9 °F 15.8 °F 74% 30.03 in 10.0 mi SSW 8.1 mph - N/A   Clear
9:35 AM 24.8 °F 16.1 °F 17.6 °F 74% 30.02 in 10.0 mi South 8.1 mph - N/A   Scattered Clouds
9:55 AM 24.8 °F 14.6 °F 17.6 °F 74% 30.01 in 10.0 mi SSW 10.4 mph - N/A   Overcast
10:15 AM 26.6 °F 16.8 °F 17.6 °F 69% 30.00 in 10.0 mi South 10.4 mph 19.6 mph N/A   Overcast
10:35 AM 26.6 °F 15.7 °F 19.4 °F 74% 29.99 in 10.0 mi SSW 12.7 mph 21.9 mph N/A   Overcast
10:55 AM 26.6 °F 18.2 °F 19.4 °F 74% 29.99 in 10.0 mi SW 8.1 mph 16.1 mph N/A   Overcast
11:15 AM 28.4 °F 19.1 °F 17.6 °F 64% 29.97 in 10.0 mi SSW 10.4 mph - N/A   Overcast
11:55 AM 28.4 °F 18.5 °F 19.4 °F 69% 29.94 in 10.0 mi SSW 11.5 mph - N/A   Overcast
12:35 PM 30.2 °F 24.3 °F 19.4 °F 64% 29.90 in 10.0 mi South 5.8 mph - N/A   Partly Cloudy
12:55 PM 30.2 °F 22.6 °F 19.4 °F 64% 29.89 in 10.0 mi South 8.1 mph - N/A   Clear
1:15 PM 32.0 °F 27.5 °F 19.4 °F 60% 29.87 in 10.0 mi South 4.6 mph - N/A   Clear
1:35 PM 32.0 °F 23.6 °F 21.2 °F 64% 29.88 in 10.0 mi South 10.4 mph - N/A   Clear
1:55 PM 33.8 °F 24.3 °F 21.2 °F 60% 29.88 in 10.0 mi SW 13.8 mph - N/A   Scattered Clouds
2:15 PM 32.0 °F 22.1 °F 21.2 °F 64% 29.87 in 10.0 mi SSW 13.8 mph 18.4 mph N/A   Partly Cloudy
2:35 PM 32.0 °F 23.0 °F 21.2 °F 64% 29.88 in 10.0 mi SW 11.5 mph 18.4 mph N/A   Clear
2:55 PM 30.2 °F 20.8 °F 21.2 °F 69% 29.88 in 10.0 mi SW 11.5 mph - N/A   Clear
3:15 PM 30.2 °F 21.3 °F 21.2 °F 69% 29.88 in 10.0 mi SW 10.4 mph - N/A   Clear
3:35 PM 30.2 °F 20.2 °F 19.4 °F 64% 29.88 in 10.0 mi SW 12.7 mph 17.3 mph N/A   Clear
3:55 PM 30.2 °F 22.6 °F 19.4 °F 64% 29.88 in 10.0 mi SW 8.1 mph - N/A   Clear
4:35 PM 28.4 °F 19.1 °F 19.4 °F 69% 29.88 in 10.0 mi SW 10.4 mph - N/A   Clear
4:55 PM 28.4 °F 19.1 °F 19.4 °F 69% 29.88 in 10.0 mi SW 10.4 mph - N/A   Clear
5:15 PM 28.4 °F 19.1 °F 19.4 °F 69% 29.88 in 10.0 mi SW 10.4 mph - N/A   Clear
5:35 PM 28.4 °F 19.1 °F 19.4 °F 69% 29.88 in 10.0 mi SW 10.4 mph - N/A   Clear
5:55 PM 28.4 °F 18.0 °F 19.4 °F 69% 29.86 in 10.0 mi SW 12.7 mph - N/A   Clear
6:15 PM 28.4 °F 17.5 °F 21.2 °F 74% 29.88 in 10.0 mi SW 13.8 mph - N/A   Clear
6:35 PM 28.4 °F 19.1 °F 19.4 °F 69% 29.87 in 10.0 mi SW 10.4 mph - N/A   Clear
6:55 PM 28.4 °F 18.5 °F 19.4 °F 69% 29.87 in 10.0 mi SW 11.5 mph - N/A   Clear
7:15 PM 28.4 °F 20.4 °F 19.4 °F 69% 29.86 in 10.0 mi SW 8.1 mph - N/A   Clear
7:35 PM 30.2 °F 20.8 °F 19.4 °F 64% 29.85 in 10.0 mi SW 11.5 mph - N/A   Partly Cloudy
7:55 PM 30.2 °F 21.9 °F 21.2 °F 69% 29.85 in 10.0 mi SW 9.2 mph - N/A   Mostly Cloudy
8:35 PM 30.2 °F 22.6 °F 21.2 °F 69% 29.83 in 10.0 mi SW 8.1 mph - N/A   Overcast
8:55 PM 30.2 °F 21.9 °F 21.2 °F 69% 29.82 in 10.0 mi SW 9.2 mph - N/A   Overcast
9:15 PM 30.2 °F 22.6 °F 21.2 °F 69% 29.81 in 10.0 mi SW 8.1 mph - N/A   Overcast
9:35 PM 30.2 °F 22.6 °F 23.0 °F 75% 29.81 in 10.0 mi SW 8.1 mph - N/A   Overcast
9:55 PM 30.2 °F 22.6 °F 23.0 °F 75% 29.81 in 10.0 mi WSW 8.1 mph - N/A   Overcast
10:15 PM 32.0 °F 23.6 °F 21.2 °F 64% 29.80 in 10.0 mi SW 10.4 mph - N/A   Overcast
10:35 PM 32.0 °F 23.6 °F 21.2 °F 64% 29.80 in 10.0 mi WSW 10.4 mph 17.3 mph N/A   Overcast
10:55 PM 32.0 °F 24.2 °F 21.2 °F 64% 29.79 in 10.0 mi WSW 9.2 mph - N/A   Overcast
11:15 PM 32.0 °F 23.6 °F 21.2 °F 64% 29.79 in 10.0 mi WSW 10.4 mph 17.3 mph N/A   Overcast
11:35 PM 32.0 °F 22.1 °F 23.0 °F 69% 29.78 in 10.0 mi WSW 13.8 mph - N/A   Scattered Clouds
11:55 PM 33.8 °F 23.9 °F 23.0 °F 65% 29.78 in 10.0 mi WSW 15.0 mph 23.0 mph N/A   Mostly Cloudy